Weather in Vilya

Russia / Nizhny Novgorod Oblast'     55°14′31″N   42°12′33″E
temp.,
°C
wind,
m/s
gust,
m/s
humid.,
%
clouds,
%
prec.,
mm/h
press.,
hPa
HPBL,
m
26 july, mon
mon2600:00+14ssw22595 0.0 102235
03:00+13w22649 0.0 102334
06:00+15wsw2365100 0.0 102394
09:00+21wsw234537 0.0 1023519
12:00+23wsw343833 0.0 10231310
15:00+24wnw353763 0.0 10222049
18:00+23nw354310 0.0 1021613
21:00+17w22615 0.0 102211
27 july, tue
tue2700:00+17wsw235857 0.0 102272
03:00+16wsw236160 0.0 102264
06:00+17wsw2763100 0.0 1022185
09:00+23nw24495 0.0 1021714
12:00+27nw34359 0.0 10202534
15:00+26nw244099 0.0 10191811
18:00+22ne365298 0.0 1019233
21:00+18sw116725 0.1 101911
28 july, wed
wed2800:00+17sse357714 0.1 101886
03:00+16s248550 0.8 101863
06:00+17sw008441 0.1 101830
09:00+23wsw12525 0.1 1016536
12:00+28w24373 0.0 10152099
15:00+25wsw245288 0.0 1013105
18:00+21ssw2274100 0.6 101256
21:00+18s2290100 3.3 101234
29 july, thu
thu2900:00+17sw2295100 0.7 101252
03:00+16e3697100 4.1 1009208
06:00+16se3997100 0.5 1007346
09:00+18ssw3797100 2.8 1006598
12:00+21w478999 0.4 1005714
15:00+22wnw497565 0.8 10051049
18:00+20wnw4108790 0.6 1005723
21:00+18w311925 0.7 1006477
30 july, fri
fri3000:00+16w27973 0.0 1006162
03:00+16wsw27972 0.0 1007145
06:00+17w29880 0.0 1008249
09:00+24w36530 0.0 1009736
12:00+27w58405 0.0 10092275
15:00+29wnw583432 0.0 10082835
18:00+27wnw36443 0.0 1008323
21:00+21wsw116138 0.0 100911